Wind_Speed
50 49 48 48 48 48 48 47 47 46 46 46 45 44 44 43 43 42 42 42 42 42 42 42 42 42 42 41 41 41 41 42 42 42 42 43 43 43 43 44 44 44 44 44 44 44 44 43 43 42 41 41 41 41 41 41 41 42 42 43 44 45 46 47 48 49 49 50 50 51 51 51 51 51 51 51 51 51 51 50 50 50 50 50 49 49
49 49 48 48 47 47 48 47 47 46 46 45 45 44 44 43 43 42 42 42 42 42 42 42 42 42 42 42 42 42 42 43 43 43 43 44 44 44 44 44 45 45 45 45 44 44 43 43 42 41 40 40 39 39 39 39 39 40 41 42 43 44 45 46 47 48 49 50 50 51 51 51 51 51 51 51 51 51 50 50 50 50 50 50 50 50
49 49 48 48 47 47 47 47 47 46 46 45 45 44 44 43 43 43 42 42 42 42 42 42 43 43 43 43 43 43 43 44 44 44 44 44 44 45 45 45 45 45 45 45 45 44 43 42 41 40 39 39 38 38 38 38 39 40 40 41 42 44 45 46 47 48 49 50 51 51 51 51 51 51 51 50 50 50 50 50 50 50 50 50 50 50
49 48 48 48 47 47 47 47 47 46 45 45 45 44 44 44 43 43 43 43 43 43 43 43 43 43 43 44 44 44 44 44 45 45 45 45 45 45 45 46 46 46 46 45 45 44 43 42 40 40 39 38 38 38 38 39 40 40 41 42 43 44 45 47 48 49 50 51 51 52 52 52 51 51 51 50 50 50 50 50 50 50 50 50 51 51
49 48 48 48 47 47 47 47 46 46 45 45 45 44 44 44 44 44 44 43 43 43 43 43 44 44 44 44 45 45 45 45 45 45 46 46 46 46 46 46 46 46 46 46 45 44 43 42 41 40 39 39 39 39 40 41 42 43 43 44 45 46 47 48 49 50 51 51 52 52 53 53 52 52 51 51 50 50 50 50 50 50 50 51 51 51
48 48 48 47 47 47 47 47 46 46 46 45 45 45 44 44 44 44 44 44 44 44 44 44 44 45 45 45 45 45 46 46 46 46 46 46 46 47 47 47 47 47 47 46 45 44 43 42 41 41 40 40 41 42 42 43 44 45 46 47 48 49 49 50 51 52 53 53 53 53 53 53 53 53 52 52 51 51 50 50 50 51 51 51 52 52
48 48 48 47 47 47 47 47 47 46 46 45 45 45 45 45 45 44 44 44 44 44 44 45 45 45 45 46 46 46 46 46 46 46 47 47 47 47 47 48 48 48 47 46 46 44 44 43 42 42 42 42 43 44 45 45 46 47 48 49 50 51 52 53 53 54 55 55 55 55 55 54 54 54 53 53 52 52 52 51 51 52 52 52 52 53
48 48 47 47 47 47 47 47 47 46 46 46 46 45 45 45 45 45 45 45 45 45 45 45 45 46 46 46 46 46 46 47 47 47 47 47 48 48 48 48 48 48 48 47 46 45 44 44 44 44 44 44 45 46 47 48 48 49 50 51 52 53 54 55 55 56 57 57 57 57 56 55 55 54 54 54 53 53 53 53 53 53 53 53 53 54
47 47 47 47 47 47 47 47 47 47 46 46 46 46 45 45 45 45 45 45 45 45 45 45 46 46 46 47 47 47 47 47 47 47 48 48 48 49 49 49 49 49 48 48 47 46 46 45 45 45 45 46 47 48 49 49 50 51 52 53 54 55 56 57 57 58 59 59 59 58 58 57 56 55 55 55 54 54 54 54 54 54 54 54 54 54
47 47 47 47 47 47 47 48 48 47 47 46 46 46 46 46 45 45 45 45 45 45 46 46 46 47 47 47 47 47 47 47 48 48 48 49 49 49 49 50 50 49 49 48 48 47 47 47 47 47 47 48 48 49 50 51 52 53 54 55 56 57 58 59 59 60 60 61 60 60 59 58 57 56 56 55 55 55 55 55 55 55 55 55 55 55
47 47 47 47 47 47 47 48 48 48 47 47 47 46 46 46 46 45 45 45 46 46 46 46 47 47 47 47 48 48 48 48 48 48 49 49 50 50 50 50 50 50 50 49 49 48 48 48 48 48 49 49 50 51 52 53 54 55 56 57 58 59 60 60 61 62 62 62 62 61 60 59 58 57 56 56 56 56 56 56 56 56 56 56 56 56
47 47 47 47 47 48 48 48 48 48 47 47 47 47 46 46 46 46 46 46 46 46 46 47 47 47 48 48 48 48 48 48 49 49 49 50 50 50 50 51 51 50 50 50 50 49 49 49 49 50 50 51 52 53 54 55 56 57 58 59 60 61 61 62 63 63 64 64 63 62 61 60 59 58 57 57 57 57 57 57 57 57 57 57 57 57
47 47 47 47 48 48 48 48 48 48 48 47 47 47 46 46 46 46 46 46 46 46 46 47 47 48 48 48 49 49 49 49 49 49 50 50 51 51 51 51 51 51 51 51 51 50 50 51 51 51 52 53 54 55 56 57 58 59 60 61 61 62 63 64 64 65 65 65 64 63 62 61 60 59 58 58 58 58 58 58 58 58 58 58 58 58
47 47 47 47 48 48 48 48 48 48 48 48 47 47 47 47 46 46 46 46 46 46 47 47 47 48 48 49 49 49 49 49 49 50 50 51 51 51 52 52 52 52 51 51 51 51 51 52 52 53 54 55 56 57 58 59 60 60 61 62 63 64 65 65 66 66 66 66 65 64 63 62 61 60 60 59 59 59 60 60 60 60 60 60 60 59
47 47 47 47 48 48 48 48 48 48 48 48 47 47 47 47 47 47 47 47 47 47 47 47 48 48 49 49 49 50 49 49 50 50 50 51 52 52 52 52 52 52 52 52 52 52 52 53 53 54 55 56 57 58 59 60 61 62 63 63 64 65 66 67 67 67 67 67 66 65 64 63 62 61 61 61 61 61 61 61 61 61 61 61 61 61
46 47 47 47 48 48 48 48 48 48 48 48 47 47 47 47 47 47 47 47 47 47 48 48 48 48 49 50 50 50 50 50 50 50 50 51 52 52 52 52 52 52 52 52 53 53 53 54 54 55 56 57 58 59 60 61 62 63 64 65 66 66 67 68 68 68 68 68 67 66 65 64 63 63 62 62 62 62 63 63 63 63 63 63 63 62
46 47 47 47 48 48 48 48 48 48 48 48 47 47 47 47 47 47 47 48 48 48 48 48 48 48 49 50 50 51 51 50 50 50 51 51 52 53 53 53 53 53 53 53 53 53 54 54 55 56 57 58 59 60 61 62 63 64 65 66 67 68 68 69 69 69 69 69 68 67 66 65 64 64 64 64 64 64 64 64 64 64 64 64 64 64
46 47 47 48 48 48 48 48 48 48 48 48 47 47 47 47 48 48 48 48 48 48 48 48 48 48 49 49 50 51 51 51 51 51 51 51 52 53 53 53 53 53 53 53 54 54 55 55 56 57 58 59 60 61 62 63 64 65 66 67 68 69 69 70 70 70 70 69 68 68 67 66 66 65 65 65 65 65 65 66 66 66 66 66 66 66
46 47 47 47 48 48 48 48 48 48 48 48 47 47 47 48 48 48 48 48 48 48 49 49 49 49 49 50 51 51 51 51 51 51 51 51 52 53 53 53 53 53 53 54 54 55 55 56 57 58 59 60 61 62 62 63 64 65 67 68 68 69 70 70 71 71 70 70 69 68 68 67 67 67 66 67 67 67 67 67 67 67 67 67 68 68
46 46 47 47 48 48 48 48 48 48 48 48 48 47 47 48 48 48 48 48 49 49 49 49 49 49 50 50 51 52 52 52 52 52 51 52 52 53 53 53 53 53 53 54 54 55 56 56 57 58 59 60 61 62 63 64 65 66 67 68 69 70 71 71 71 71 71 70 69 69 68 68 68 68 68 68 68 68 68 69 69 69 69 69 70 70
46 46 47 47 47 47 47 48 48 48 48 48 48 47 47 48 48 48 48 48 49 49 49 49 50 50 50 51 52 52 52 53 53 52 52 52 52 53 53 53 53 53 53 54 55 55 56 57 58 59 60 61 62 63 64 65 66 67 68 69 70 70 71 71 71 71 71 70 69 69 69 69 69 69 69 69 69 69 70 70 70 70 71 71 72 73
46 46 47 47 47 47 47 48 48 48 48 48 48 47 47 47 48 48 48 48 49 49 49 50 50 50 51 51 52 53 53 53 53 53 52 52 52 53 53 53 53 53 54 54 55 56 56 57 58 59 60 61 62 63 64 65 66 67 68 69 70 71 71 71 71 71 70 70 70 69 69 69 69 70 70 70 70 71 71 71 72 72 73 74 75 76
46 47 47 47 48 48 48 48 48 48 48 48 48 48 48 48 48 48 48 49 49 50 50 50 50 51 51 52 53 53 54 54 54 54 53 53 52 53 53 54 54 54 54 54 55 56 57 58 59 60 60 61 62 63 64 65 66 68 68 69 70 71 71 71 71 71 70 70 70 70 70 70 70 70 71 71 71 72 72 73 73 74 75 77 78 79
47 47 47 47 47 47 47 47 47 47 47 47 48 48 48 48 48 48 49 49 50 50 50 50 50 51 52 52 53 54 54 55 55 54 54 53 53 53 53 54 54 54 54 55 56 56 57 58 59 60 61 62 63 64 65 66 67 68 69 70 71 71 71 71 71 70 70 70 70 70 70 70 70 71 71 71 72 72 73 74 75 76 78 79 81 82
47 47 47 47 47 47 47 47 47 47 47 47 48 48 48 48 48 49 49 50 50 50 50 50 51 51 52 53 54 54 55 55 55 55 55 54 53 53 54 54 55 55 55 55 56 57 57 58 59 60 61 62 63 64 65 66 67 68 69 70 71 71 71 71 71 70 70 70 70 70 70 70 71 71 71 72 72 73 74 76 77 79 80 81 82 83
48 47 47 47 47 46 46 46 46 47 47 47 47 48 48 48 48 49 49 50 50 51 51 51 51 52 52 53 54 55 55 56 56 55 55 54 54 54 54 55 55 55 55 56 56 57 58 58 59 60 61 62 63 64 65 66 67 69 69 70 71 71 71 71 70 70 70 70 70 70 70 71 71 71 72 72 74 75 76 78 79 81 82 82 82 82
47 47 46 46 46 46 46 46 46 47 47 47 47 48 48 48 49 49 50 50 51 51 51 51 52 52 52 53 54 55 56 56 56 56 55 55 55 55 55 55 56 56 56 56 57 57 58 59 59 60 61 62 63 64 65 67 68 69 70 70 71 71 70 70 70 70 70 70 70 70 70 71 71 72 72 74 75 77 78 80 81 81 82 82 81 80
47 46 46 46 45 45 46 46 46 47 47 47 48 48 48 49 49 50 50 51 51 52 52 52 52 52 53 53 54 55 56 57 57 56 56 55 55 55 55 56 56 57 57 57 57 57 58 59 59 60 61 61 63 64 65 67 68 69 70 70 70 70 70 70 70 70 70 70 70 70 70 71 71 72 74 75 77 78 79 80 81 81 80 79 78 77
46 46 45 45 45 45 46 46 47 47 47 48 48 48 49 49 50 50 51 51 51 52 52 53 53 53 53 54 54 55 56 57 57 57 56 56 56 56 56 56 57 57 57 57 57 57 58 58 59 60 61 62 63 64 66 67 68 69 70 70 70 70 69 69 69 69 69 69 70 70 70 71 72 74 75 77 78 79 79 79 79 78 77 75 73 71
46 45 45 45 45 46 46 46 47 47 47 48 48 49 49 50 50 51 51 51 52 52 53 53 53 54 54 54 54 55 56 57 57 57 56 56 56 56 56 57 57 58 58 58 58 57 57 57 59 60 61 62 63 65 66 68 69 69 69 69 69 69 69 69 69 69 69 69 69 70 71 72 73 75 76 77 78 78 78 77 76 74 72 70 68 65
46 45 45 45 46 46 46 47 47 47 48 48 49 49 50 50 51 51 52 52 52 53 53 53 54 54 54 55 55 55 56 57 57 57 57 56 56 56 57 57 58 58 59 59 59 58 57 57 58 59 61 63 64 65 67 68 69 69 69 69 68 68 68 68 68 68 68 69 69 70 71 73 74 76 76 77 77 76 75 74 72 69 66 64 61 60
46 46 46 46 46 46 47 47 47 48 48 49 49 50 50 51 51 52 52 52 53 53 53 54 54 54 55 55 55 55 56 57 57 57 57 57 57 57 57 58 58 59 59 59 59 59 58 58 58 59 61 63 64 66 67 68 69 69 69 68 68 67 67 67 68 68 68 69 69 71 72 74 75 76 76 76 75 73 71 68 65 62 60 58 56 55
47 47 47 47 47 47 47 47 48 48 49 49 50 50 51 51 52 52 53 53 53 54 54 54 54 55 55 55 55 56 56 57 57 57 57 57 57 57 57 58 58 59 59 59 59 60 60 59 59 60 61 62 64 66 67 68 68 68 68 67 67 67 67 67 67 68 68 69 70 71 73 74 75 75 74 73 71 68 65 62 58 56 54 53 52 52
48 47 47 47 47 47 47 48 48 49 49 50 50 51 51 52 52 53 53 54 54 54 54 55 55 55 55 55 55 56 56 57 57 57 57 57 57 57 58 58 59 59 59 59 59 60 60 60 61 61 62 63 64 66 67 68 68 68 67 67 66 66 66 67 67 68 68 70 71 72 73 74 74 73 71 69 66 62 58 54 52 50 50 50 50 50
48 48 48 48 48 48 48 49 49 49 50 50 51 52 52 53 53 53 54 54 54 55 55 55 55 55 55 55 55 56 56 57 57 58 58 58 58 58 58 58 59 59 59 59 60 60 61 61 62 63 63 64 65 66 67 67 67 67 66 66 66 66 66 66 67 68 69 70 72 72 73 73 72 70 67 64 60 55 51 48 47 47 48 49 49 49
49 49 49 49 49 49 49 49 50 50 51 51 52 52 53 53 53 54 54 54 55 55 55 55 55 56 56 56 56 56 56 57 58 58 58 58 58 58 58 58 59 59 60 60 60 61 61 62 63 63 64 65 66 66 66 66 66 66 65 65 65 65 66 66 67 68 70 71 72 72 72 70 69 66 62 58 53 49 46 44 45 46 47 47 47 47
50 50 50 50 49 50 50 50 50 51 51 52 52 53 53 53 54 54 54 55 55 55 55 55 55 56 56 56 56 56 57 57 58 58 58 59 59 59 59 59 59 59 60 61 61 62 62 63 64 64 65 66 66 66 65 65 65 64 64 64 64 65 65 67 68 69 70 71 71 71 70 68 65 61 57 52 47 44 43 43 44 45 46 45 45 46
50 50 50 50 50 50 50 51 51 51 52 52 53 53 54 54 54 54 55 55 55 55 55 55 55 56 56 56 56 57 57 57 58 58 58 59 59 59 59 59 59 60 61 62 62 63 64 64 65 65 65 66 66 65 65 64 64 63 63 63 63 64 65 67 68 69 70 71 70 69 67 64 60 56 51 47 43 42 42 43 44 44 44 44 45 46
51 51 51 51 51 51 51 51 51 52 52 53 53 53 54 54 54 55 55 55 55 55 55 55 55 56 56 56 56 57 57 57 58 58 58 59 59 59 59 59 60 60 61 62 63 64 65 65 66 66 66 66 65 65 64 63 63 62 62 62 62 63 65 67 68 69 70 70 69 67 64 60 56 51 47 43 41 41 42 43 44 44 44 45 46 47
51 51 51 51 51 51 51 51 52 52 53 53 53 54 54 54 54 54 55 55 55 55 55 55 55 55 56 56 56 57 57 57 58 58 58 59 59 59 59 60 60 61 62 63 64 65 66 66 67 67 67 66 65 64 63 62 62 62 62 62 62 63 64 66 68 69 69 68 67 64 60 56 51 47 43 41 41 41 42 43 44 45 45 46 47 49
51 51 51 51 51 51 51 52 52 52 53 53 53 54 54 54 54 54 54 55 55 55 55 55 55 55 55 56 56 56 57 57 58 58 58 59 59 59 60 61 61 62 63 64 65 65 66 67 67 67 67 66 65 63 62 61 61 61 62 62 62 63 64 66 67 68 68 67 64 61 56 51 47 43 41 41 41 42 43 44 45 46 47 48 49 51
51 51 51 51 51 51 52 52 52 53 53 53 53 53 54 54 54 54 54 54 54 55 55 55 55 55 55 55 56 56 57 57 57 58 58 59 59 60 61 61 62 63 64 65 65 66 66 67 67 67 66 65 64 62 61 60 60 61 62 62 63 64 64 65 66 67 66 65 62 57 52 47 44 41 40 40 41 43 44 45 46 47 48 49 51 52
52 51 51 51 51 52 52 52 52 53 53 53 53 53 54 54 54 54 54 54 54 54 54 54 54 54 54 55 55 56 56 57 58 58 59 59 60 61 62 62 63 64 65 65 66 66 66 66 66 66 65 64 63 62 61 60 60 60 61 62 63 64 64 65 66 66 64 62 58 53 48 44 41 40 40 40 42 43 44 45 46 48 49 50 51 52
52 52 52 52 52 52 52 52 52 52 53 53 53 53 53 54 54 54 54 54 54 54 54 54 54 54 54 54 54 55 56 57 58 58 59 60 61 62 62 63 64 65 65 66 66 66 66 66 65 65 64 63 62 61 61 60 60 60 61 62 64 64 65 65 65 64 62 59 55 50 45 42 40 39 39 40 41 43 44 45 46 48 49 50 51 52
52 52 52 52 52 52 52 52 52 52 52 52 53 53 53 53 53 53 53 53 53 53 53 53 53 53 53 53 54 55 56 57 58 59 60 61 62 62 63 64 65 65 66 66 66 66 65 65 64 64 63 62 61 60 60 60 60 61 61 62 63 64 65 65 65 63 60 56 51 46 42 40 39 39 39 40 41 42 43 45 46 48 49 50 51 52
52 52 52 51 51 51 51 52 52 52 52 52 52 53 53 53 53 53 53 53 53 53 53 53 53 53 53 53 54 55 56 57 58 59 60 61 62 63 64 65 65 66 66 66 66 65 65 64 64 63 62 61 60 59 59 60 61 61 62 62 63 64 64 64 64 62 59 54 48 44 40 39 39 39 39 39 40 41 43 44 46 47 49 50 51 52
52 51 51 51 51 51 51 51 51 51 52 52 52 52 52 53 53 53 53 53 53 52 52 52 52 52 53 53 54 55 55 57 58 59 60 61 62 63 64 65 65 65 65 65 65 65 64 64 63 62 61 60 59 59 59 60 60 61 62 62 63 63 63 63 62 60 57 52 46 42 39 38 38 39 39 39 40 41 42 44 46 47 48 49 50 51
51 51 51 51 51 51 51 51 51 51 51 51 52 52 52 52 52 52 52 52 52 52 52 52 52 52 53 54 54 55 56 57 58 59 60 61 62 63 64 64 65 65 65 64 64 64 63 62 62 61 60 59 59 58 58 59 60 61 62 62 63 63 62 61 60 58 54 50 45 41 39 38 38 39 39 40 40 41 42 44 46 47 48 49 50 52
51 51 51 51 51 51 51 51 51 51 51 51 51 51 52 52 52 52 52 52 52 52 52 52 52 53 53 54 55 55 56 57 58 59 60 61 62 63 63 64 64 64 64 63 63 63 62 61 60 59 59 59 59 58 58 59 59 60 61 62 62 62 61 60 58 55 52 47 43 40 38 38 39 39 40 40 40 41 42 44 45 47 48 50 51 52
51 51 51 50 50 50 50 50 50 50 50 51 51 51 51 51 51 51 52 51 52 52 52 52 52 53 54 54 55 56 57 58 59 60 61 61 62 62 63 63 63 63 63 62 62 61 60 59 58 58 57 58 58 59 59 59 59 60 61 61 62 61 60 58 56 53 50 45 41 39 38 38 39 40 41 41 41 41 42 43 45 46 48 50 52 53
51 51 50 50 50 50 50 50 50 50 50 50 50 51 51 51 51 51 51 51 52 52 52 52 53 53 54 55 56 57 58 59 59 60 61 62 62 62 62 63 63 62 62 61 61 60 59 57 56 56 55 56 57 58 59 59 60 60 60 60 60 60 59 57 54 51 47 43 40 38 38 38 39 40 41 41 41 42 42 43 44 46 49 51 53 53
Wind_Direction
271 271 272 273 273 273 274 274 275 275 275 274 274 274 274 274 274 273 273 272 271 271 270 270 270 271 272 273 274 275 276 277 278 279 281 281 282 283 284 284 284 285 285 285 285 286 286 287 288 289 290 291 292 293 294 296 297 298 298 299 299 299 298 297 296 295 294 292 291 289 288 287 285 284 283 282 281 280 280 279 278 277 277 276 276 275
270 271 271 272 272 272 273 273 273 273 273 273 273 273 273 273 273 273 272 271 271 270 270 270 271 271 272 273 274 275 276 277 278 279 280 281 282 282 283 283 284 284 284 284 285 285 286 287 287 288 289 290 292 293 295 296 298 299 300 300 301 301 301 300 299 297 296 294 292 290 289 287 286 284 283 282 281 280 279 278 277 277 276 275 275 274
269 270 270 271 271 272 272 272 273 272 272 272 273 273 273 273 273 273 272 271 270 270 270 270 271 272 273 273 274 275 276 277 278 279 280 281 281 282 282 283 283 283 284 284 284 285 285 286 286 287 289 290 291 293 295 296 298 299 300 301 302 302 302 302 301 300 298 296 294 292 290 288 286 285 283 282 280 279 278 278 277 276 275 275 274 274
268 269 269 270 270 271 271 271 272 271 271 272 272 273 273 273 273 273 272 271 271 271 270 271 271 272 273 274 274 275 276 277 278 279 279 280 281 282 282 283 283 283 283 284 284 284 284 285 285 286 288 289 291 293 294 296 297 299 300 301 302 303 303 303 303 302 300 298 296 293 291 289 287 285 283 282 281 279 279 278 277 276 275 275 274 274
268 268 269 269 270 270 270 270 270 270 271 271 271 272 272 273 272 272 272 271 271 271 271 271 272 272 273 274 274 275 276 277 278 279 280 280 281 282 282 282 283 283 283 283 283 283 284 284 285 286 287 289 291 292 294 295 297 298 299 300 301 302 303 304 304 304 302 301 298 295 292 289 287 285 283 282 281 280 279 278 277 277 276 275 275 274
267 267 268 269 269 269 269 269 269 269 270 270 271 271 272 272 272 271 271 271 271 271 271 272 272 272 273 273 274 275 276 277 278 279 280 281 281 282 282 282 283 283 283 283 283 283 283 283 284 285 287 289 290 292 294 295 297 298 299 300 301 302 303 304 304 304 304 303 300 298 294 291 288 286 284 282 281 280 279 278 278 277 277 276 275 275
266 266 267 267 268 268 268 268 268 269 269 270 270 271 271 271 271 271 270 270 271 271 271 272 272 272 273 273 274 275 276 277 278 279 280 281 282 282 282 283 283 283 283 283 282 282 282 283 284 285 287 289 290 292 294 295 296 298 299 300 301 302 303 304 304 305 305 304 302 300 296 293 290 287 284 283 281 280 279 279 278 278 277 277 276 275
265 265 266 266 267 267 267 268 268 268 269 269 270 270 270 270 270 270 270 270 270 270 271 271 272 272 273 274 274 275 277 278 279 280 281 281 282 282 283 283 283 283 283 282 282 282 282 283 284 285 287 289 291 292 294 295 297 298 299 300 301 302 303 303 304 304 305 304 303 301 298 295 291 288 285 284 282 281 280 280 279 279 278 278 277 276
264 265 265 265 266 266 267 267 267 267 268 269 269 269 270 270 270 269 269 269 270 270 271 272 272 273 273 274 275 276 277 278 279 280 281 282 282 283 283 283 283 283 283 282 282 282 282 283 284 286 287 289 291 292 294 295 297 298 299 300 301 302 302 303 304 304 304 304 303 302 299 296 293 290 287 284 283 282 281 280 280 280 279 279 278 277
264 264 265 265 265 266 266 267 267 267 268 268 268 269 269 269 269 269 270 270 270 270 271 272 273 273 274 275 275 276 278 279 280 281 281 282 283 283 283 283 283 283 283 282 282 282 283 284 285 286 288 289 291 292 294 295 296 298 299 300 301 301 302 303 303 304 304 304 303 302 300 297 294 291 288 285 284 282 281 281 281 280 280 279 279 278
263 264 264 265 265 265 266 266 267 268 268 268 268 268 268 268 269 269 270 270 271 271 272 272 273 274 275 276 277 277 279 280 280 281 282 282 283 283 283 284 283 283 283 283 283 283 284 284 286 287 288 290 291 292 294 295 296 297 298 299 300 301 302 302 303 303 304 303 303 302 300 298 295 292 289 286 284 283 282 282 281 281 281 280 279 278
263 263 264 264 265 265 266 266 267 267 268 268 268 268 268 268 268 268 269 270 271 271 272 273 274 274 276 277 277 278 279 280 281 282 283 283 284 284 284 284 284 284 284 283 283 284 284 285 286 287 288 290 291 292 294 295 296 297 298 299 300 301 301 302 302 303 303 303 302 301 300 298 295 292 290 287 285 284 283 283 282 282 281 281 280 279
263 263 264 264 265 265 266 266 267 268 268 268 268 268 268 268 267 267 268 269 270 271 272 273 274 275 276 277 278 279 280 281 282 283 284 284 284 285 285 285 285 285 284 284 284 284 285 286 287 288 289 290 291 292 294 295 296 297 298 299 300 300 301 302 302 302 303 302 302 301 299 297 295 292 290 288 286 285 284 284 283 283 282 281 281 280
263 264 264 265 265 266 266 267 267 268 268 268 268 268 268 268 267 268 268 269 270 270 271 273 274 276 277 278 278 279 280 281 282 283 284 285 285 285 285 285 285 285 285 285 285 285 286 287 288 289 289 290 291 293 294 295 296 297 297 298 299 300 301 301 302 302 302 302 301 300 299 297 295 292 290 288 287 286 285 284 284 283 283 282 281 280
264 264 265 265 266 266 267 267 268 268 268 268 268 268 268 268 268 268 269 269 270 270 271 273 274 276 277 278 279 280 280 281 282 284 284 285 285 285 285 285 285 285 285 285 285 286 286 287 288 289 290 291 291 292 293 294 295 296 297 298 299 300 300 301 301 301 301 301 301 299 298 296 294 292 290 289 287 286 286 285 284 284 283 282 281 280
264 265 265 266 267 267 267 268 268 268 268 268 268 268 268 268 268 268 269 269 270 271 272 273 274 276 277 278 279 280 281 281 282 283 284 285 285 285 285 285 285 285 285 285 286 286 287 288 288 289 290 291 291 292 293 294 295 296 297 298 299 300 300 301 301 301 301 301 300 299 297 296 294 292 290 289 288 287 286 285 285 284 283 283 282 281
265 266 266 267 268 268 268 268 268 268 268 268 268 268 268 268 268 269 269 270 270 271 272 273 275 276 278 279 280 280 281 282 283 283 284 285 285 286 285 285 285 285 285 286 286 286 287 288 288 289 290 291 291 292 293 294 295 296 297 298 299 299 300 300 301 301 301 300 299 298 297 295 294 292 291 289 288 287 287 286 285 284 284 283 282 281
266 267 267 268 268 269 269 269 269 268 268 268 268 268 268 268 268 269 269 270 271 272 272 273 274 276 277 279 280 280 281 282 283 283 284 285 285 285 285 285 285 285 285 285 286 286 287 288 288 289 290 291 292 293 294 295 296 297 297 298 299 299 300 300 300 300 300 300 299 298 296 295 293 292 291 290 289 288 287 286 285 285 284 283 282 282
267 268 268 269 269 269 269 269 269 269 268 268 268 268 268 268 269 269 270 271 271 272 273 274 275 276 277 279 279 280 281 282 282 283 284 284 285 285 285 285 285 285 285 285 285 286 287 287 288 289 290 291 292 293 294 295 296 297 298 298 299 299 300 300 300 300 300 299 298 297 296 295 293 292 291 290 289 288 287 287 286 285 284 284 283 282
268 269 269 269 269 270 270 270 269 269 268 268 268 268 269 269 270 270 271 272 272 273 273 274 275 276 277 278 280 280 281 282 282 283 283 284 284 284 284 284 284 285 285 285 285 286 286 287 288 289 290 291 292 293 294 295 296 297 298 298 299 299 300 300 300 300 299 299 298 297 295 294 293 292 291 290 289 289 288 287 286 286 285 284 284 283
269 270 270 270 270 270 270 270 269 269 269 268 268 269 269 270 270 271 272 272 273 273 274 275 276 277 278 279 280 281 281 282 282 283 283 283 284 284 284 284 284 284 284 285 285 286 286 287 288 289 290 291 292 293 294 295 296 297 298 298 299 299 300 300 300 299 299 298 297 296 295 294 293 292 291 291 290 289 288 288 287 287 286 285 285 284
270 270 270 270 270 270 270 270 270 269 269 269 269 269 270 270 271 272 272 273 273 274 275 276 277 277 278 280 280 281 282 282 283 283 283 283 283 284 284 284 284 284 284 285 285 286 286 287 288 289 290 291 292 293 294 295 296 297 297 298 299 299 299 299 299 299 298 297 296 295 295 294 293 292 292 291 290 290 289 289 288 288 287 287 286 286
270 270 270 270 270 270 270 270 270 270 270 270 270 270 270 271 272 272 273 273 274 274 275 276 277 278 279 280 281 282 282 283 283 283 283 283 284 284 284 284 284 284 285 285 285 286 287 287 288 290 291 292 293 294 295 295 296 297 297 298 298 299 299 299 298 298 297 296 296 295 294 293 293 292 292 291 291 290 290 290 289 289 289 288 288 287
270 270 270 270 270 270 270 270 270 270 271 271 271 271 271 272 272 273 273 273 274 274 275 276 277 279 280 281 282 283 283 283 283 284 284 284 284 284 284 284 284 285 285 285 286 286 287 288 289 290 291 292 293 294 295 296 296 297 297 298 298 298 298 298 298 297 297 296 295 294 294 293 293 292 292 291 291 291 290 290 290 290 290 289 289 289
270 269 269 269 269 270 270 270 271 271 271 271 272 272 272 273 273 273 274 274 274 275 276 277 278 279 280 281 282 283 283 283 284 284 284 284 284 285 285 285 285 285 286 286 286 287 288 289 289 290 291 292 293 294 295 296 296 297 298 298 298 298 298 298 297 297 296 295 295 294 293 293 292 292 292 291 291 291 291 291 291 291 291 290 290 289
269 269 269 269 269 270 270 270 271 271 271 272 272 272 272 273 273 274 274 274 275 275 276 277 278 279 281 282 283 283 284 284 284 284 284 285 285 285 285 285 286 286 286 287 287 288 289 289 290 291 292 293 294 295 296 296 297 297 298 298 298 298 298 298 297 296 296 295 294 294 293 293 292 292 292 292 292 292 292 292 292 292 292 291 291 290
268 268 269 269 269 270 270 271 271 271 272 272 272 272 273 273 273 274 274 275 276 276 277 278 279 280 281 282 283 284 284 284 284 284 285 285 286 286 286 286 286 287 287 287 288 288 289 290 291 292 293 294 295 295 296 297 297 298 298 298 298 298 298 297 297 296 295 295 294 294 293 293 293 293 293 293 294 294 294 294 293 293 293 292 292 291
268 268 269 269 270 270 271 271 272 272 272 272 272 273 273 273 274 274 275 275 276 277 278 279 280 280 281 282 283 284 284 284 284 285 285 286 286 286 286 287 287 287 287 287 288 289 290 291 292 293 294 294 295 296 296 297 298 298 298 298 298 298 298 297 296 296 295 295 294 294 294 294 294 294 294 295 295 295 295 295 294 294 294 293 293 292
268 268 269 269 270 271 271 271 272 272 272 273 273 273 273 274 274 275 275 276 277 278 279 279 280 281 282 282 283 284 285 285 285 285 286 286 287 287 287 287 287 287 288 288 289 290 291 292 293 294 295 295 296 297 297 298 298 298 299 299 298 298 297 297 296 296 295 295 294 294 294 295 295 295 296 296 296 296 296 296 295 295 294 294 293 292
268 269 269 270 270 271 271 272 272 272 273 273 273 274 274 274 275 275 276 277 277 278 279 280 281 282 282 283 284 284 285 285 285 286 286 286 287 287 287 287 288 288 289 289 290 290 291 293 294 295 295 296 297 297 298 298 299 299 299 299 298 298 297 296 296 295 295 295 295 295 295 296 296 297 297 298 297 297 297 296 296 295 295 294 293 292
269 269 270 270 271 271 272 272 272 273 273 273 274 274 275 275 276 276 277 278 278 279 280 281 281 282 283 284 284 285 285 285 286 286 286 287 287 287 288 288 288 289 290 290 291 292 292 293 294 295 296 297 298 298 299 299 299 299 299 299 298 298 297 296 296 295 295 295 295 296 297 297 298 298 299 299 298 298 297 297 296 295 295 294 293 293
269 270 270 271 271 272 272 272 273 273 274 274 274 275 275 276 276 277 278 278 279 280 281 282 282 283 284 284 285 285 286 286 286 286 287 287 288 288 288 289 290 290 291 292 293 293 294 294 295 295 296 298 298 299 299 300 300 300 299 299 298 297 297 296 296 295 296 296 296 297 298 299 299 300 300 299 299 298 298 297 296 295 294 294 293 293
269 270 271 271 272 272 273 273 274 274 274 275 275 276 276 277 277 278 279 279 280 281 282 282 283 284 284 285 286 286 286 287 287 287 287 288 288 289 289 290 291 291 292 293 294 295 295 296 296 297 297 298 299 300 300 300 300 300 300 299 298 297 297 296 296 296 296 297 298 299 300 300 301 301 300 300 299 299 298 297 295 295 294 294 294 295
269 270 271 271 272 273 273 274 274 275 275 275 276 276 277 277 278 279 279 280 281 281 282 283 284 285 285 286 286 287 287 287 287 288 288 288 289 290 290 291 292 292 293 294 295 295 296 297 298 298 299 299 300 301 301 301 301 300 300 299 298 298 297 297 297 297 298 299 300 300 301 301 302 301 301 300 300 298 297 296 295 294 295 295 296 296
269 270 270 271 272 273 273 274 274 275 275 276 277 277 278 278 279 279 280 281 282 282 283 284 285 285 286 286 287 287 287 288 288 288 289 289 290 291 291 292 293 293 294 295 295 296 297 298 299 299 300 301 301 301 301 301 301 300 300 299 298 298 298 298 298 299 299 300 301 302 302 303 302 302 301 300 299 297 295 294 294 295 296 297 298 299
269 269 270 271 272 273 273 274 275 275 276 276 277 278 278 279 279 280 281 282 282 283 284 285 285 286 286 287 287 288 288 288 289 289 290 290 291 291 292 293 294 294 295 296 296 297 298 299 300 300 301 302 302 302 302 301 301 300 300 299 299 299 299 299 299 300 301 302 303 303 303 303 303 302 301 299 297 295 293 293 294 295 297 298 300 301
268 269 270 271 272 272 273 274 275 275 276 277 277 278 278 279 280 281 281 282 283 284 285 285 286 286 287 287 288 288 289 289 289 290 290 291 292 292 293 294 294 295 296 297 297 298 299 300 300 301 302 302 303 303 302 302 301 300 300 299 299 299 300 300 301 302 303 303 304 304 304 304 303 301 299 297 294 293 292 293 295 296 298 300 302 304
268 268 269 270 271 272 273 274 275 275 276 277 277 278 279 280 280 281 282 283 284 284 285 286 286 287 287 288 288 288 289 290 290 291 291 292 292 293 294 294 295 296 297 298 298 299 300 301 301 302 303 303 303 303 303 302 301 300 300 300 300 300 301 302 302 303 304 304 305 305 304 304 302 300 297 294 292 291 292 294 296 297 299 301 303 306
267 268 269 270 271 272 273 274 275 275 276 277 278 278 279 280 281 282 283 283 284 285 285 286 287 287 288 288 289 289 289 290 291 291 292 293 293 294 294 295 296 297 297 298 299 300 301 302 303 303 304 304 304 303 303 302 301 301 300 300 300 301 302 303 304 304 304 305 305 305 304 303 301 298 295 292 290 291 293 295 296 298 299 301 304 306
267 268 269 270 271 272 273 274 274 275 276 277 278 278 279 280 281 282 283 284 284 285 286 286 287 287 288 289 289 290 290 291 291 292 292 293 294 294 295 296 297 298 298 299 300 301 302 303 304 304 304 304 304 304 303 302 302 301 301 301 301 302 303 304 304 305 305 305 306 305 304 302 299 295 292 291 290 292 294 295 297 298 299 301 303 306
267 268 269 270 271 272 272 273 274 275 276 277 278 279 280 281 281 282 283 284 284 285 286 286 287 287 288 289 289 290 291 291 292 292 293 294 294 295 296 297 297 298 299 300 301 302 303 304 305 305 305 305 304 304 303 303 302 302 302 302 303 303 304 305 305 305 306 306 306 305 303 300 296 293 291 290 291 293 295 297 298 298 299 301 303 305
267 268 269 270 271 271 272 273 274 275 276 277 278 279 280 281 282 282 283 284 284 285 286 286 287 288 288 289 290 290 291 292 292 293 294 294 295 296 297 297 298 299 300 301 302 303 304 304 305 305 305 305 304 304 303 303 302 303 303 303 304 304 305 305 305 305 306 306 306 304 301 297 293 291 290 291 293 295 297 298 299 299 300 301 303 306
267 268 269 270 271 271 272 273 274 275 276 277 278 279 280 281 281 282 283 284 284 285 286 286 287 288 288 289 290 290 291 292 293 294 294 295 296 297 298 298 299 300 301 302 302 303 304 305 305 305 305 305 305 304 304 303 303 303 304 304 305 305 306 306 306 306 306 306 305 303 299 294 291 289 290 292 294 297 298 299 300 300 301 302 304 306
267 268 269 270 271 271 272 273 274 275 276 277 278 279 280 281 281 282 283 283 284 285 285 286 287 287 288 289 290 291 292 292 293 294 295 296 297 297 298 299 300 301 301 302 303 304 305 305 305 305 305 305 305 304 304 304 304 304 305 305 306 306 306 306 306 306 306 306 304 301 296 292 289 289 290 293 296 299 300 300 300 300 301 302 304 306
268 268 269 270 271 272 273 273 274 275 276 277 278 279 280 280 281 282 283 283 284 285 285 286 287 287 288 289 290 291 292 293 294 295 296 296 297 298 299 299 300 301 302 303 304 304 305 305 305 305 305 305 304 304 305 305 305 305 305 306 306 306 307 307 307 307 307 306 303 299 294 290 288 289 292 295 298 300 301 301 301 301 302 303 305 306
268 268 269 270 271 272 272 273 274 275 276 277 278 279 280 280 281 282 282 283 284 284 285 286 286 287 288 289 290 291 292 293 294 295 296 297 297 298 299 300 301 301 302 303 304 305 305 305 305 305 305 304 304 305 305 305 306 306 306 306 306 307 307 307 307 307 307 305 302 297 292 289 288 290 292 296 299 301 301 301 301 301 302 304 306 307
267 268 269 270 271 271 272 273 274 275 276 277 278 279 279 280 281 281 282 283 283 284 285 286 287 287 288 289 290 291 292 293 294 295 296 296 297 298 299 300 301 302 302 303 304 305 305 305 305 305 305 304 304 305 305 306 306 306 307 307 307 307 307 307 307 307 306 304 300 296 291 289 289 290 293 296 299 301 301 302 302 302 303 305 307 309
267 268 269 269 270 271 272 273 274 275 276 277 277 278 279 280 281 281 282 283 283 284 285 286 287 288 289 290 290 291 292 293 294 295 295 296 297 298 299 300 301 302 302 303 304 305 305 305 305 305 305 305 305 305 306 306 306 307 307 307 307 307 307 307 307 307 305 303 299 294 290 289 289 291 294 297 299 301 302 302 303 304 305 307 308 310
267 267 268 269 270 271 272 273 274 275 275 276 277 278 279 280 280 281 282 283 283 284 285 286 287 288 289 290 291 291 292 293 294 294 295 296 297 298 298 299 300 301 302 303 304 304 305 305 305 304 305 305 305 306 306 306 306 307 307 307 307 307 307 307 307 306 304 301 297 293 290 290 290 292 295 297 299 301 302 302 304 305 307 308 310 311
267 267 268 269 270 270 271 272 273 274 275 276 277 278 278 279 280 281 282 283 284 285 285 286 287 288 289 290 291 292 292 293 294 294 295 296 297 297 298 299 300 301 302 302 303 304 304 304 304 304 304 305 306 306 307 307 307 306 306 306 307 307 307 307 307 305 303 299 296 292 290 290 292 293 296 298 300 301 302 303 305 307 308 309 310 311
267 267 268 269 269 270 271 272 273 274 275 276 277 277 278 279 280 281 282 283 284 285 286 286 287 288 289 290 291 292 292 293 294 294 295 296 297 297 298 299 300 301 301 302 302 303 303 303 303 303 304 305 306 307 307 307 307 307 306 306 306 307 307 307 306 305 302 298 295 292 291 291 293 295 296 298 300 301 302 303 306 308 309 310 310 311
Height
5661 5661 5661 5662 5662 5661 5661 5661 5662 5662 5662 5662 5662 5663 5663 5663 5663 5663 5663 5663 5663 5662 5662 5662 5661 5661 5661 5661 5661 5661 5661 5660 5660 5660 5660 5659 5659 5659 5658 5658 5657 5657 5656 5656 5655 5655 5654 5654 5653 5652 5652 5651 5651 5650 5649 5649 5648 5647 5646 5646 5645 5645 5644 5643 5642 5642 5641 5640 5640 5639 5638 5638 5637 5637 5636 5636 5636 5635 5635 5635 5635 5635 5635 5635 5635 5635
5658 5658 5657 5658 5658 5658 5657 5657 5658 5659 5658 5658 5659 5659 5659 5659 5659 5659 5660 5660 5659 5659 5659 5658 5658 5658 5658 5657 5657 5657 5657 5657 5656 5656 5656 5656 5656 5655 5655 5654 5654 5653 5653 5652 5652 5651 5651 5650 5649 5649 5648 5647 5647 5646 5646 5645 5644 5644 5643 5642 5641 5641 5640 5639 5638 5638 5637 5636 5635 5635 5634 5633 5633 5632 5632 5631 5631 5631 5631 5630 5630 5630 5630 5630 5630 5630
5654 5654 5654 5654 5654 5654 5654 5654 5654 5655 5655 5655 5655 5655 5655 5655 5655 5656 5656 5656 5656 5656 5655 5655 5655 5655 5654 5654 5654 5654 5654 5653 5653 5653 5652 5652 5652 5651 5651 5651 5650 5650 5649 5648 5648 5647 5647 5646 5646 5645 5644 5644 5643 5642 5642 5641 5641 5640 5639 5638 5637 5637 5636 5635 5634 5633 5632 5632 5631 5630 5630 5629 5628 5628 5627 5627 5626 5626 5626 5626 5626 5626 5626 5625 5626 5626
5650 5650 5650 5651 5651 5651 5650 5650 5650 5651 5651 5651 5651 5651 5651 5651 5651 5652 5652 5652 5652 5652 5652 5651 5651 5651 5651 5651 5651 5650 5650 5650 5650 5649 5649 5648 5648 5648 5647 5647 5646 5646 5645 5645 5644 5643 5643 5642 5642 5641 5641 5640 5639 5638 5638 5637 5636 5636 5635 5634 5633 5632 5632 5631 5630 5629 5628 5627 5626 5626 5625 5624 5624 5623 5623 5622 5622 5621 5621 5621 5621 5621 5621 5621 5621 5621
5646 5646 5646 5647 5647 5646 5646 5647 5647 5647 5647 5648 5648 5648 5648 5648 5648 5648 5648 5648 5648 5648 5648 5648 5648 5647 5647 5647 5647 5647 5646 5646 5646 5646 5645 5645 5644 5644 5644 5643 5642 5642 5641 5641 5640 5640 5639 5638 5638 5637 5636 5636 5635 5634 5634 5633 5632 5631 5631 5630 5629 5628 5627 5626 5625 5624 5623 5622 5621 5621 5620 5619 5619 5618 5618 5617 5617 5617 5616 5616 5616 5616 5616 5616 5616 5616
5642 5643 5642 5643 5643 5643 5643 5643 5643 5644 5644 5644 5644 5644 5644 5645 5645 5645 5645 5645 5645 5645 5644 5644 5644 5644 5644 5644 5643 5643 5643 5643 5642 5642 5641 5641 5641 5640 5640 5639 5639 5638 5637 5637 5636 5636 5635 5634 5634 5633 5632 5631 5631 5630 5629 5628 5628 5627 5626 5625 5624 5623 5622 5621 5621 5620 5619 5618 5617 5616 5615 5614 5614 5613 5613 5612 5612 5612 5612 5611 5611 5611 5611 5611 5611 5611
5639 5639 5639 5639 5639 5639 5639 5639 5639 5640 5641 5641 5641 5641 5641 5641 5641 5641 5641 5641 5641 5641 5641 5641 5641 5641 5640 5640 5640 5640 5639 5639 5639 5638 5638 5637 5637 5636 5636 5635 5635 5634 5633 5633 5632 5631 5631 5630 5630 5629 5628 5627 5626 5626 5625 5624 5623 5622 5621 5620 5619 5618 5617 5616 5615 5614 5613 5612 5611 5611 5610 5609 5608 5608 5607 5607 5607 5607 5606 5606 5606 5606 5606 5606 5606 5606
5635 5635 5636 5636 5636 5636 5635 5635 5636 5636 5637 5637 5637 5637 5637 5638 5638 5638 5638 5638 5638 5638 5637 5637 5637 5637 5636 5636 5636 5636 5636 5635 5635 5634 5634 5633 5633 5632 5632 5631 5631 5630 5629 5629 5628 5627 5627 5626 5626 5625 5624 5623 5622 5621 5620 5619 5618 5617 5616 5615 5614 5613 5612 5611 5610 5609 5608 5607 5606 5605 5604 5603 5603 5602 5602 5601 5601 5601 5601 5601 5601 5601 5601 5601 5601 5601
5632 5631 5632 5632 5632 5632 5632 5631 5632 5632 5633 5633 5634 5634 5634 5634 5634 5634 5634 5634 5634 5634 5634 5634 5633 5633 5633 5633 5632 5632 5632 5631 5631 5631 5630 5630 5629 5628 5628 5627 5627 5626 5625 5625 5624 5623 5623 5622 5621 5620 5619 5618 5617 5616 5616 5615 5613 5612 5611 5610 5609 5608 5607 5606 5605 5604 5603 5602 5601 5600 5599 5598 5597 5596 5596 5596 5596 5596 5596 5596 5595 5595 5595 5595 5595 5595
5628 5628 5628 5628 5628 5629 5628 5628 5628 5629 5630 5630 5630 5631 5631 5631 5631 5631 5631 5631 5631 5631 5631 5630 5630 5629 5629 5629 5629 5628 5628 5628 5627 5627 5626 5626 5625 5625 5624 5623 5623 5622 5621 5621 5620 5619 5618 5618 5617 5616 5615 5614 5613 5612 5611 5610 5609 5607 5606 5605 5604 5603 5602 5601 5600 5599 5597 5596 5595 5594 5593 5592 5591 5591 5591 5590 5590 5590 5590 5590 5590 5590 5590 5589 5589 5589
5624 5624 5624 5624 5624 5625 5625 5625 5624 5625 5626 5626 5626 5626 5627 5627 5627 5627 5627 5627 5627 5627 5627 5626 5626 5626 5625 5625 5625 5625 5624 5624 5623 5623 5622 5622 5621 5621 5620 5620 5619 5618 5617 5616 5616 5615 5614 5613 5612 5611 5611 5609 5608 5607 5606 5605 5604 5603 5601 5600 5599 5598 5597 5596 5595 5593 5592 5591 5590 5589 5588 5587 5586 5585 5585 5584 5584 5584 5584 5584 5584 5584 5583 5583 5583 5583
5620 5620 5621 5621 5621 5621 5621 5621 5621 5621 5622 5622 5622 5623 5623 5624 5624 5624 5624 5624 5624 5624 5624 5623 5622 5622 5621 5621 5621 5621 5621 5620 5619 5619 5618 5617 5617 5616 5616 5615 5615 5614 5613 5612 5611 5611 5610 5609 5608 5607 5606 5605 5604 5602 5601 5600 5599 5598 5596 5595 5594 5593 5591 5590 5589 5588 5586 5585 5584 5583 5582 5581 5580 5580 5579 5578 5578 5578 5578 5578 5577 5577 5577 5577 5577 5577
5616 5616 5616 5616 5616 5616 5617 5617 5617 5618 5618 5618 5619 5619 5619 5620 5620 5621 5620 5620 5621 5621 5621 5620 5619 5618 5618 5617 5617 5617 5617 5616 5616 5615 5614 5613 5613 5612 5612 5611 5610 5610 5609 5608 5607 5606 5606 5605 5604 5603 5601 5600 5599 5598 5596 5595 5594 5593 5591 5590 5589 5587 5586 5585 5584 5582 5581 5580 5579 5577 5576 5576 5575 5574 5573 5573 5572 5572 5572 5571 5571 5571 5571 5571 5571 5571
5612 5612 5612 5612 5612 5612 5613 5613 5613 5614 5614 5615 5615 5615 5616 5616 5616 5616 5617 5617 5617 5617 5617 5616 5616 5615 5614 5613 5613 5613 5613 5612 5612 5611 5611 5610 5609 5608 5608 5607 5606 5606 5605 5604 5603 5602 5601 5600 5599 5598 5597 5596 5594 5593 5591 5590 5589 5587 5586 5585 5584 5582 5581 5579 5578 5576 5575 5574 5573 5572 5571 5570 5569 5568 5567 5567 5566 5566 5566 5565 5565 5565 5565 5565 5565 5564
5608 5608 5608 5608 5608 5608 5609 5609 5610 5610 5610 5611 5611 5611 5612 5612 5612 5613 5613 5613 5613 5613 5613 5613 5612 5612 5611 5610 5609 5609 5609 5609 5609 5608 5607 5606 5605 5604 5604 5603 5602 5602 5601 5600 5599 5598 5597 5596 5595 5593 5592 5591 5589 5588 5586 5585 5584 5582 5581 5580 5578 5577 5575 5574 5572 5571 5569 5568 5567 5566 5565 5564 5563 5562 5561 5561 5560 5560 5559 5559 5559 5558 5558 5558 5558 5558
5604 5604 5604 5604 5604 5604 5605 5605 5606 5606 5606 5607 5607 5608 5608 5608 5608 5609 5609 5609 5609 5610 5610 5609 5609 5608 5607 5606 5605 5605 5605 5605 5605 5605 5604 5602 5601 5600 5600 5599 5599 5598 5597 5596 5595 5594 5593 5592 5591 5589 5588 5586 5585 5583 5582 5580 5579 5577 5576 5574 5573 5571 5570 5568 5566 5565 5563 5562 5561 5560 5558 5557 5557 5556 5555 5555 5554 5553 5553 5552 5552 5552 5551 5551 5551 5551
5600 5600 5600 5600 5600 5600 5601 5601 5602 5602 5602 5603 5603 5604 5604 5604 5604 5605 5605 5605 5605 5605 5605 5605 5605 5604 5604 5602 5601 5601 5601 5601 5601 5601 5601 5599 5597 5596 5596 5595 5595 5594 5593 5592 5591 5590 5589 5588 5586 5585 5583 5581 5580 5578 5577 5576 5574 5572 5571 5569 5567 5566 5564 5562 5561 5559 5557 5556 5554 5553 5552 5551 5550 5550 5549 5548 5547 5547 5546 5546 5545 5545 5545 5545 5544 5544
5596 5596 5596 5596 5596 5596 5597 5597 5597 5598 5598 5599 5599 5600 5600 5600 5600 5601 5601 5601 5601 5601 5601 5601 5601 5601 5600 5599 5597 5596 5596 5596 5596 5597 5597 5596 5594 5592 5591 5591 5591 5590 5589 5588 5587 5586 5585 5583 5582 5580 5579 5577 5576 5574 5572 5571 5569 5567 5566 5564 5562 5560 5558 5556 5554 5553 5551 5550 5548 5547 5546 5545 5544 5543 5542 5541 5541 5540 5540 5539 5538 5538 5538 5537 5537 5537
5592 5592 5592 5592 5592 5592 5593 5593 5593 5594 5595 5595 5595 5596 5596 5596 5596 5596 5596 5597 5597 5597 5597 5597 5596 5596 5596 5595 5593 5593 5592 5592 5592 5593 5593 5592 5591 5589 5587 5587 5586 5586 5586 5584 5583 5582 5581 5579 5578 5576 5574 5572 5571 5569 5568 5566 5564 5562 5560 5558 5556 5554 5552 5550 5548 5546 5545 5543 5542 5540 5539 5538 5537 5536 5535 5535 5534 5533 5532 5532 5531 5531 5531 5530 5530 5529
5588 5588 5588 5588 5588 5588 5589 5589 5589 5590 5590 5591 5591 5591 5591 5592 5592 5592 5592 5592 5592 5592 5592 5592 5592 5592 5592 5591 5590 5588 5588 5588 5588 5588 5589 5588 5587 5585 5584 5583 5583 5582 5582 5580 5579 5578 5576 5575 5573 5572 5570 5568 5566 5565 5563 5561 5559 5557 5555 5553 5551 5549 5547 5545 5542 5541 5539 5537 5536 5534 5533 5531 5530 5529 5528 5527 5526 5526 5525 5524 5524 5523 5523 5522 5522 5522
5584 5584 5584 5584 5585 5584 5584 5585 5585 5585 5586 5586 5586 5587 5587 5588 5588 5588 5588 5588 5588 5588 5588 5588 5588 5588 5587 5586 5585 5584 5583 5583 5583 5584 5584 5584 5583 5581 5580 5579 5579 5579 5578 5576 5575 5574 5572 5571 5569 5567 5566 5564 5562 5560 5558 5556 5554 5552 5550 5548 5546 5543 5541 5539 5537 5535 5533 5531 5529 5528 5526 5525 5524 5522 5521 5520 5519 5519 5518 5517 5516 5516 5515 5515 5514 5513
5580 5580 5580 5580 5580 5580 5581 5581 5581 5581 5581 5581 5582 5583 5583 5584 5584 5584 5584 5584 5584 5584 5584 5584 5583 5583 5582 5581 5580 5579 5579 5578 5578 5579 5579 5579 5579 5577 5576 5575 5574 5574 5574 5572 5571 5570 5568 5566 5565 5563 5561 5560 5557 5556 5554 5551 5549 5547 5545 5543 5541 5538 5536 5534 5531 5529 5527 5526 5524 5522 5520 5519 5517 5516 5515 5513 5512 5511 5510 5509 5509 5508 5507 5506 5506 5505
5576 5576 5576 5576 5576 5576 5576 5576 5576 5576 5577 5577 5578 5578 5579 5579 5580 5580 5580 5580 5580 5580 5580 5580 5579 5578 5577 5576 5576 5575 5574 5573 5573 5573 5574 5574 5574 5573 5572 5571 5570 5570 5569 5568 5566 5565 5564 5562 5561 5559 5557 5555 5553 5551 5549 5547 5544 5542 5540 5538 5535 5533 5531 5528 5526 5524 5522 5520 5518 5516 5514 5513 5511 5509 5508 5506 5505 5504 5503 5502 5501 5500 5499 5497 5496 5495
5572 5572 5571 5571 5571 5571 5572 5572 5572 5572 5573 5573 5573 5574 5574 5575 5575 5575 5575 5575 5575 5575 5575 5575 5575 5574 5573 5572 5571 5570 5569 5568 5568 5568 5568 5569 5569 5568 5567 5566 5565 5565 5564 5563 5562 5560 5559 5558 5556 5554 5552 5550 5548 5546 5544 5541 5539 5537 5535 5532 5530 5528 5525 5523 5521 5518 5516 5514 5512 5510 5508 5507 5505 5503 5502 5500 5499 5497 5496 5495 5493 5492 5491 5489 5487 5486
5567 5567 5567 5567 5567 5567 5568 5568 5569 5569 5569 5569 5569 5570 5570 5571 5571 5571 5570 5570 5570 5571 5571 5571 5571 5570 5569 5568 5567 5565 5564 5563 5563 5563 5563 5563 5564 5563 5562 5561 5560 5560 5559 5558 5557 5556 5554 5553 5551 5550 5547 5545 5543 5541 5539 5536 5534 5531 5529 5527 5524 5522 5520 5517 5515 5513 5511 5508 5506 5505 5503 5501 5499 5497 5496 5494 5492 5491 5489 5487 5486 5484 5482 5480 5478 5476
5563 5563 5563 5563 5563 5564 5564 5565 5565 5565 5565 5565 5565 5566 5566 5566 5566 5566 5566 5566 5566 5566 5566 5566 5566 5565 5565 5564 5562 5561 5560 5558 5558 5558 5558 5558 5558 5558 5557 5556 5555 5555 5554 5553 5552 5551 5549 5548 5547 5545 5542 5540 5538 5536 5533 5531 5528 5526 5524 5521 5519 5516 5514 5511 5509 5507 5505 5502 5501 5499 5497 5495 5493 5491 5489 5488 5486 5484 5482 5480 5477 5475 5473 5471 5470 5468
5559 5559 5559 5559 5559 5560 5560 5560 5560 5560 5560 5561 5561 5561 5561 5561 5562 5562 5562 5562 5562 5562 5561 5561 5561 5561 5560 5559 5558 5556 5555 5554 5553 5553 5553 5553 5553 5553 5552 5551 5550 5549 5549 5548 5548 5546 5545 5543 5542 5540 5538 5535 5533 5531 5528 5525 5523 5520 5518 5516 5513 5511 5508 5506 5503 5501 5499 5496 5494 5492 5491 5489 5487 5485 5483 5481 5479 5476 5474 5471 5469 5466 5464 5462 5461 5459
5554 5554 5555 5555 5555 5555 5556 5556 5556 5556 5556 5556 5556 5557 5557 5557 5558 5557 5557 5557 5557 5557 5556 5556 5556 5556 5556 5555 5554 5552 5551 5549 5548 5548 5548 5548 5548 5547 5547 5546 5545 5544 5543 5543 5543 5542 5540 5538 5536 5535 5532 5530 5528 5525 5522 5520 5517 5515 5512 5510 5507 5505 5502 5499 5497 5495 5492 5490 5488 5486 5484 5482 5480 5478 5476 5474 5471 5468 5466 5463 5460 5458 5456 5454 5452 5450
5549 5550 5550 5551 5551 5551 5551 5551 5551 5552 5552 5552 5552 5552 5552 5553 5553 5553 5553 5553 5553 5552 5552 5552 5551 5551 5551 5550 5549 5548 5546 5544 5543 5543 5544 5543 5543 5542 5542 5541 5539 5538 5538 5537 5537 5537 5536 5533 5531 5529 5527 5525 5523 5520 5517 5514 5511 5509 5506 5504 5501 5499 5496 5493 5491 5489 5486 5484 5482 5480 5478 5476 5474 5471 5469 5466 5463 5461 5457 5455 5452 5450 5447 5446 5444 5442
5545 5546 5546 5546 5546 5546 5547 5547 5547 5547 5547 5548 5548 5548 5548 5548 5548 5548 5548 5548 5548 5548 5547 5547 5547 5546 5546 5545 5545 5543 5541 5539 5538 5538 5539 5538 5537 5537 5537 5535 5534 5533 5532 5531 5531 5532 5532 5530 5527 5523 5521 5519 5517 5514 5511 5508 5506 5503 5501 5498 5496 5493 5490 5487 5485 5483 5481 5479 5476 5474 5472 5470 5467 5465 5462 5459 5456 5452 5449 5446 5444 5442 5440 5438 5436 5435
5541 5541 5541 5542 5542 5542 5542 5542 5543 5543 5543 5543 5543 5543 5543 5543 5543 5543 5543 5543 5543 5543 5543 5542 5542 5541 5541 5540 5539 5538 5537 5535 5534 5533 5534 5533 5532 5532 5531 5530 5528 5527 5527 5526 5525 5525 5526 5526 5524 5520 5516 5513 5511 5509 5506 5502 5499 5497 5495 5492 5489 5487 5484 5481 5479 5477 5475 5473 5471 5468 5466 5463 5461 5458 5455 5451 5448 5445 5442 5439 5436 5434 5433 5431 5430 5428
5536 5537 5537 5537 5537 5538 5538 5538 5538 5539 5539 5539 5539 5539 5539 5539 5539 5539 5538 5538 5538 5538 5538 5538 5537 5536 5536 5535 5534 5533 5532 5530 5529 5528 5528 5528 5527 5527 5526 5525 5523 5522 5521 5520 5519 5518 5517 5518 5518 5516 5513 5509 5506 5503 5500 5497 5494 5491 5488 5486 5483 5481 5478 5476 5473 5471 5469 5467 5465 5462 5460 5456 5454 5451 5447 5444 5441 5438 5435 5432 5430 5427 5426 5425 5424 5422
5532 5532 5533 5533 5533 5533 5533 5534 5534 5534 5534 5534 5534 5534 5534 5534 5534 5534 5534 5534 5533 5533 5533 5533 5532 5531 5531 5530 5529 5528 5526 5525 5524 5523 5523 5522 5522 5521 5521 5520 5518 5516 5516 5515 5514 5512 5511 5510 5510 5510 5508 5505 5501 5497 5493 5491 5488 5485 5482 5480 5477 5475 5472 5470 5467 5465 5463 5461 5458 5456 5453 5450 5446 5443 5440 5437 5434 5431 5428 5426 5423 5421 5420 5419 5418 5417
5528 5528 5528 5528 5529 5529 5529 5529 5530 5530 5530 5530 5530 5530 5530 5530 5529 5529 5529 5529 5529 5528 5528 5528 5527 5526 5526 5525 5524 5523 5521 5520 5519 5518 5518 5517 5516 5516 5515 5514 5512 5511 5510 5509 5508 5507 5505 5504 5503 5502 5501 5499 5497 5493 5488 5484 5481 5479 5476 5473 5471 5468 5466 5464 5461 5459 5456 5454 5452 5449 5446 5443 5440 5436 5433 5430 5427 5425 5422 5420 5418 5416 5414 5413 5412 5411
5524 5524 5524 5524 5525 5525 5525 5525 5525 5525 5525 5525 5525 5525 5525 5525 5525 5525 5524 5524 5524 5523 5523 5522 5522 5521 5521 5520 5519 5518 5516 5515 5514 5513 5512 5511 5511 5511 5510 5509 5507 5506 5504 5503 5502 5501 5499 5498 5497 5496 5493 5492 5491 5488 5484 5479 5475 5472 5470 5467 5465 5462 5459 5457 5455 5452 5450 5448 5445 5442 5439 5436 5433 5430 5427 5424 5421 5419 5417 5415 5413 5411 5409 5408 5407 5406
5520 5520 5520 5520 5520 5521 5521 5521 5521 5521 5521 5521 5521 5521 5521 5520 5520 5520 5520 5519 5519 5518 5518 5517 5517 5516 5515 5515 5514 5512 5511 5510 5509 5507 5506 5506 5506 5505 5504 5503 5502 5501 5499 5497 5497 5496 5494 5492 5491 5490 5487 5485 5483 5481 5479 5475 5470 5466 5463 5461 5459 5456 5453 5451 5448 5446 5443 5441 5438 5435 5432 5429 5426 5423 5421 5418 5416 5414 5412 5410 5408 5406 5405 5403 5402 5400
5516 5516 5516 5516 5516 5516 5516 5516 5516 5516 5516 5516 5516 5516 5516 5516 5516 5515 5515 5515 5514 5514 5513 5512 5512 5511 5510 5509 5508 5507 5506 5505 5503 5502 5501 5500 5500 5499 5499 5498 5496 5495 5493 5491 5490 5490 5488 5486 5485 5484 5482 5479 5476 5474 5471 5469 5466 5462 5459 5456 5453 5450 5447 5445 5442 5439 5436 5434 5431 5429 5426 5423 5420 5417 5415 5413 5411 5410 5408 5406 5404 5402 5400 5399 5397 5395
5511 5511 5511 5511 5512 5512 5512 5512 5512 5512 5512 5512 5512 5511 5511 5511 5511 5511 5510 5510 5509 5509 5508 5507 5507 5506 5505 5504 5503 5501 5501 5499 5498 5497 5496 5495 5494 5494 5493 5492 5491 5490 5488 5486 5484 5483 5482 5480 5479 5477 5475 5473 5471 5468 5465 5462 5459 5456 5454 5451 5448 5445 5441 5438 5436 5433 5430 5427 5425 5422 5420 5417 5414 5412 5410 5408 5407 5405 5403 5401 5400 5398 5396 5394 5392 5391
5507 5507 5507 5507 5507 5508 5508 5508 5508 5508 5507 5507 5507 5507 5507 5506 5506 5506 5506 5505 5505 5504 5503 5503 5502 5501 5500 5499 5497 5496 5495 5494 5493 5492 5491 5490 5489 5488 5487 5486 5485 5484 5482 5481 5479 5477 5475 5473 5472 5470 5468 5466 5465 5463 5460 5456 5453 5450 5448 5446 5444 5441 5437 5433 5429 5426 5424 5421 5419 5416 5413 5411 5409 5407 5405 5404 5402 5401 5399 5397 5395 5393 5391 5390 5388 5386
5503 5503 5503 5503 5503 5503 5503 5503 5503 5503 5503 5503 5503 5502 5502 5502 5502 5501 5501 5501 5500 5499 5499 5498 5497 5496 5495 5494 5492 5491 5490 5489 5488 5487 5486 5484 5483 5483 5482 5481 5480 5478 5477 5475 5473 5471 5469 5467 5465 5463 5461 5459 5457 5455 5454 5451 5447 5444 5441 5440 5438 5436 5433 5428 5424 5420 5417 5415 5413 5410 5408 5406 5404 5402 5401 5399 5398 5396 5395 5393 5391 5389 5387 5386 5384 5381
5499 5499 5499 5499 5499 5499 5499 5499 5499 5499 5498 5498 5498 5498 5498 5498 5498 5497 5496 5496 5495 5495 5494 5493 5493 5491 5490 5489 5487 5486 5485 5484 5483 5481 5480 5479 5478 5477 5476 5475 5474 5473 5471 5469 5468 5466 5464 5461 5458 5456 5455 5453 5450 5449 5447 5445 5441 5438 5435 5433 5431 5430 5428 5424 5419 5415 5411 5409 5407 5405 5402 5401 5399 5398 5396 5395 5393 5392 5390 5389 5386 5385 5382 5381 5379 5377
5494 5494 5495 5494 5494 5494 5494 5494 5494 5494 5494 5494 5494 5493 5493 5493 5493 5493 5492 5491 5491 5490 5490 5489 5488 5487 5486 5484 5483 5481 5480 5479 5477 5476 5475 5474 5473 5472 5471 5469 5468 5467 5465 5464 5462 5460 5458 5456 5453 5450 5448 5446 5444 5442 5440 5438 5436 5433 5429 5426 5425 5423 5422 5419 5415 5410 5406 5404 5402 5400 5397 5396 5395 5394 5392 5391 5389 5387 5386 5384 5382 5380 5378 5376 5374 5372
5490 5490 5490 5490 5490 5490 5490 5490 5490 5490 5490 5490 5489 5489 5489 5489 5489 5488 5488 5487 5487 5486 5485 5485 5484 5483 5482 5480 5478 5477 5475 5474 5472 5471 5470 5469 5468 5466 5465 5464 5462 5461 5459 5458 5456 5455 5453 5451 5448 5445 5442 5440 5438 5436 5433 5432 5430 5427 5424 5421 5418 5416 5414 5413 5410 5406 5402 5400 5397 5395 5392 5391 5390 5389 5388 5387 5385 5383 5381 5379 5377 5375 5373 5371 5369 5367
5486 5486 5486 5486 5486 5486 5486 5485 5485 5485 5485 5485 5485 5485 5485 5485 5484 5484 5483 5483 5482 5481 5481 5480 5479 5478 5477 5476 5474 5473 5471 5469 5468 5466 5465 5464 5462 5461 5460 5458 5457 5455 5454 5452 5450 5448 5447 5445 5442 5440 5437 5434 5431 5429 5427 5425 5423 5421 5419 5416 5413 5410 5407 5406 5403 5401 5398 5395 5392 5390 5388 5386 5386 5385 5384 5383 5381 5379 5377 5375 5373 5370 5368 5366 5364 5362
5481 5481 5481 5481 5481 5481 5481 5481 5481 5481 5481 5481 5481 5480 5480 5480 5480 5479 5479 5478 5478 5477 5476 5476 5475 5474 5472 5471 5470 5469 5467 5465 5463 5461 5460 5458 5457 5456 5455 5453 5451 5450 5448 5446 5445 5443 5441 5438 5436 5434 5432 5430 5427 5424 5421 5418 5416 5415 5413 5411 5408 5405 5402 5399 5396 5394 5392 5390 5388 5386 5384 5382 5381 5381 5381 5379 5378 5376 5373 5371 5368 5366 5363 5361 5359 5357
5476 5476 5476 5476 5477 5477 5477 5477 5477 5476 5476 5476 5476 5476 5476 5475 5475 5475 5474 5474 5473 5473 5472 5471 5471 5469 5468 5467 5466 5464 5463 5461 5459 5457 5455 5453 5452 5451 5449 5448 5446 5444 5442 5441 5439 5437 5435 5433 5431 5428 5426 5424 5422 5420 5417 5413 5410 5408 5406 5405 5403 5400 5397 5394 5391 5388 5386 5385 5383 5381 5379 5378 5377 5377 5376 5375 5374 5372 5369 5366 5363 5361 5358 5356 5354 5351
5472 5472 5472 5472 5472 5472 5472 5472 5472 5472 5472 5472 5472 5471 5471 5471 5470 5470 5470 5469 5469 5468 5467 5467 5466 5465 5463 5462 5461 5460 5458 5456 5455 5453 5451 5449 5447 5446 5444 5443 5441 5439 5437 5436 5434 5432 5430 5428 5426 5423 5421 5418 5416 5415 5412 5409 5406 5402 5400 5399 5397 5395 5392 5389 5386 5383 5381 5379 5378 5376 5375 5374 5373 5372 5371 5371 5370 5368 5365 5362 5359 5356 5353 5351 5349 5346
5467 5467 5467 5468 5468 5468 5468 5468 5468 5468 5468 5467 5467 5467 5466 5466 5466 5465 5465 5465 5464 5464 5463 5462 5461 5460 5459 5457 5456 5455 5454 5452 5451 5449 5447 5445 5443 5441 5440 5438 5436 5434 5433 5431 5429 5427 5425 5423 5421 5418 5416 5413 5411 5409 5407 5405 5401 5397 5395 5393 5391 5389 5387 5385 5382 5379 5376 5374 5373 5372 5371 5370 5369 5368 5367 5366 5366 5364 5361 5358 5355 5351 5348 5346 5344 5341
5462 5463 5463 5463 5463 5463 5463 5463 5463 5463 5463 5463 5463 5462 5462 5461 5461 5461 5460 5460 5460 5459 5458 5457 5456 5455 5454 5453 5452 5451 5449 5448 5446 5444 5443 5441 5439 5437 5436 5434 5432 5430 5428 5427 5425 5423 5421 5419 5416 5414 5411 5408 5405 5403 5401 5400 5397 5393 5390 5388 5386 5384 5382 5380 5378 5375 5372 5370 5369 5367 5366 5365 5364 5364 5363 5362 5361 5360 5358 5355 5351 5347 5344 5341 5338 5336
5457 5458 5458 5458 5459 5459 5459 5459 5459 5459 5459 5458 5458 5458 5457 5457 5456 5456 5456 5455 5455 5454 5454 5453 5451 5451 5449 5448 5447 5446 5445 5443 5441 5440 5438 5436 5435 5433 5431 5429 5428 5426 5424 5423 5421 5420 5417 5415 5413 5411 5407 5403 5400 5397 5395 5393 5391 5389 5386 5383 5381 5378 5376 5375 5373 5371 5368 5366 5365 5364 5362 5361 5360 5359 5358 5357 5356 5356 5354 5351 5348 5344 5340 5336 5333 5331
5453 5453 5453 5454 5454 5454 5454 5454 5454 5454 5454 5454 5454 5453 5453 5452 5452 5451 5451 5451 5450 5450 5449 5448 5447 5446 5445 5444 5442 5441 5440 5438 5436 5435 5433 5431 5430 5428 5426 5425 5423 5421 5420 5418 5417 5416 5414 5412 5410 5408 5405 5401 5396 5392 5390 5387 5385 5382 5381 5379 5376 5374 5371 5370 5368 5366 5364 5362 5361 5360 5359 5357 5356 5355 5354 5353 5352 5351 5350 5348 5345 5341 5337 5333 5329 5326